{"data":{"norad_id":56171,"intl_designator":"2023-050K","name":"BB 1","alt_names":[],"object_type":"PAYLOAD","status":"ACTIVE","operator":null,"country":"US","launch_date":"2023-04-02","launch_site_code":"AFWTR","launch_vehicle":null,"mission":null,"orbit_class":"UNKNOWN","rcs_meters":null,"size_class":null,"mass_kg":null,"dimensions":null,"purposes":[],"wikipedia_slug":null,"has_3d_model":false,"image_url":null,"decayed_at":null,"tle_current":{"epoch":"2026-05-25T03:17:20.101344Z","epoch_age_seconds":59416,"freshness":"FRESH","line1":"1 56171U 23050K   26145.13703821  .00000139  00000+0  11764-3 0  9997","line2":"2 56171  81.0011 102.6744 0017025  11.6933 348.4614 13.82654757158355","mean_motion":13.82654757,"eccentricity":0.0017025,"inclination_deg":81.0011,"raan_deg":102.6744,"arg_perigee_deg":11.6933,"mean_anomaly_deg":348.4614,"bstar":0.00011764,"rev_number":15835,"period_min":104.14747374279,"perigee_km":942.00192546048,"apogee_km":966.96950580721,"semimajor_km":7332.6227156338,"source":"CELESTRAK","updated_at":"2026-05-25T13:37:59.371014Z"}}}